Location: Bethel Church
(38.0159°N, 88.7292°W)
Time: 07:02:02
(UTC+00:00)

APEX - Pass Details

Date: 08 December 2021
Orbit: 330 x 1043 km, 69.9° (Epoch: 16 January)

Event Time Altitude Azimuth Distance (km) Brightness Sun altitude
Rises 23:21:06 0° 194° (SSW) 2,871 7.5 -9.0°
Reaches altitude 10° 23:23:35 10° 190° (S) 1,842 6.4 -9.5°
Maximum altitude 23:27:33 56° 112° (ESE) 575 3.2 -10.2°
Enters shadow 23:30:34 12° 34° (NE) 1,425 4.9 -10.7°
